www.pogodaiklimat.ru

Погода и климат >> Архив погоды >> Канада >> Dauphin Airport


ПОГОДА в Dauphin Airport

  • Прогноз погоды в Dauphin Airport
  • Монитор погоды в Dauphin Airport
  • Климат города

АРХИВ ПОГОДЫ в Dauphin Airport

Время (UTC), дата Ветер
(напр.,м/с)
 
Видим.   Явления Облачность Т
(С)
Тd
(С)
f
(%)
Тe
(С)
Тes
(С)
Комфортность P
(гПа)
Po
(гПа)
Тmin
(С)
Tmax
(С)
R
(мм)
R24
(мм)
S
(см)
18 11.10 С 5 16 км 10/10 600 м
[]
-2.2 -7.4 67 -8 -8 1020.9 982.8 -3.1 -2.0
21 11.10 СЗ 3 16 км 5/5 600 м
[]
0.0 -7.5 57 -4 -2 1019.2 981.2
00 12.10 ЮВ 2 16 км ясно -3.4 -7.1 76 -7 -7 1018.2 980.1 -3.4 +0.5
03 12.10 ЮЗ 2 16 км ясно -5.7 -7.5 87 -9 -9 1017.6 979.4
06 12.10 З 3 16 км ясно -7.5 -9.2 88 -13 -13 1016.6 978.4 -8.6 +0.5
09 12.10 З 3 16 км ясно -7.8 -9.3 89 -14 -14 1015.2 977.1
12 12.10 ЮЗ 4 16 км ясно -4.4 -6.9 83 -10 -10 1013.3 975.3 -8.6 +0.5
15 12.10 ЮЗ 4 16 км ясно +1.9 -4.9 61 -2 -2 1010.6 972.9
18 12.10 ЮЗ 6 16 км ясно +7.1 -2.7 50 +3 +5 1007.2 969.7 -8.6 +7.4
21 12.10 ЮЗ 6 16 км 5/0
[]
+7.7 -1.0 54 +4 +5 1003.5 966.2
00 13.10 Ю 4 16 км 10/0 2000 м
[]
+6.5 -0.1 63 +3 +3 1000.9 963.8 -8.0 +8.4
03 13.10 ЮЗ 3 16 км слаб. дождь 10/10 600 м
[]
+4.8 +2.2 83 +2 +2 999.8 962.9
06 13.10 З 3 16 км слаб. дождь {осадки} 10/10 600 м
[]
+3.9 +3.3 96 -0 -0 999.2 962.5 -8.0 +8.4 1 21
09 13.10 С 6 16 км слаб. дождь {осадки} 10/10 300 м
[]
+1.9 +1.3 96 -4 -4 1001.8 964.9
12 13.10 СЗ 3 16 км слаб. снег {осадки} 10/10 600 м
[]
-0.7 -1.2 96 -6 -6 1005.4 968.2 -0.8 +8.4 2
15 13.10 СЗ 7 16 км ясно -1.0 -5.2 73 -8 -8 1007.8 970.5
18 13.10 СЗ 9 16 км 10/10 1000 м
[]
+1.0 -4.3 68 -6 -6 1008.9 971.6 -2.3 +4.0
21 13.10 СЗ 8 16 км 10/10 1000 м
[]
+1.3 -4.7 64 -5 -5 1010.0 972.6
00 14.10 З 7 16 км слаб. дождь 10/10 1000 м
[]
+0.2 -6.5 61 -6 -6 1011.7 974.1 -2.3 +2.5
03 14.10 З 9 4000 м слаб. снег 10/10 600 м
[]
-1.6 -3.3 88 -10 -10 1012.0 974.3
06 14.10 СЗ 5 4800 м слаб. снег 10/10 300 м
[]
-1.5 -2.1 96 -8 -8 1013.8 976.1 -2.3 +4.0 131
09 14.10 С 8 2800 м слаб. снег 10/10 300 м
[]
-2.5 -3.2 95 -11 -11 1016.5 978.7
12 14.10 С 7 9000 м слаб. снег 10/10 600 м
[]
-3.8 -4.8 93 -12 -12 1019.6 981.5 -3.8 +4.0
15 14.10 С 9 2800 м слаб. снег 10/10 600 м
[]
-4.0 -5.3 91 -13 -13 1022.3 984.1
18 14.10 С 7 16 км слаб. снег 10/10 300 м
[]
-2.7 -5.4 82 -11 -11 1023.9 985.7 -4.2 -1.5
21 14.10 СЗ 6 16 км 10/10 600 м
[]
-2.2 -6.2 74 -9 -9 1024.3 986.0
00 15.10 С 4 16 км 10/10 600 м
[]
-3.9 -6.4 83 -10 -10 1024.7 986.3 -4.2 -1.4
03 15.10 З 1 16 км 10/10 600 м
[]
-4.9 -6.5 89 -6 -6 1023.9 985.5
06 15.10 ЮЗ 3 16 км ясно -8.8 -9.7 93 -15 -15 1022.2 983.7 -11.4 -1.4 141
09 15.10 ЮЗ 5 16 км ясно -5.7 -8.1 83 -13 -13 1018.4 980.2
12 15.10 ЮЗ 5 16 км 5/0
[]
-3.2 -7.0 75 -10 -10 1014.0 976.0 -11.4 -1.4
15 15.10 ЮЗ 4 16 км 10/10 1000 м
[]
-0.5 -5.0 72 -6 -6 1008.9 971.2
18 15.10 З 9 16 км 10/0 2000 м
[]
+4.2 -1.1 68 -2 -2 1006.2 968.6 -11.4 +4.2 0.8
21 15.10 З 8 16 км {осадки} 9/9 1000 м
[]
+9.4 +3.2 65 +5 +6 1006.0 968.7
00 16.10 Ю 2 16 км 9/0 2000 м
[]
+5.5 +2.2 79 +3 +3 1006.9 969.5 -8.7 +10.2 0.5
03 16.10 С 3 16 км 9/9 1500 м
[]
+3.1 +1.0 86 -1 -1 1010.2 972.7
06 16.10 СЗ 6 16 км 10/10 1000 м
[]
+4.5 -1.9 63 -0 -0 1012.4 975.1 -8.7 +10.2 181
09 16.10 С 4 16 км 10/10 1000 м
[]
+3.0 -1.2 74 -1 -1 1014.7 977.4
12 16.10 С 4 16 км 10/10 600 м
[]
+1.9 -1.5 78 -3 -3 1017.6 980.0 +1.9 +10.2
15 16.10 С 4 16 км 10/10 600 м
[]
+1.7 -2.1 76 -3 -3 1019.9 982.2
18 16.10 СЗ 5 16 км 10/10 1000 м
[]
+3.5 -2.9 63 -1 -1 1020.9 983.2 +1.2 +4.6
21 16.10 З 7 16 км 10/10 1500 м
[]
+4.9 -3.4 55 0 0 1020.8 983.1
00 17.10 З 5 16 км 10/10 1500 м
[]
+3.3 -1.3 72 -1 -1 1022.0 984.2 +1.2 +5.3
03 17.10 СЗ 2 16 км 9/9 1500 м
[]
+0.5 -2.3 81 -3 -3 1024.4 986.4
06 17.10 С 2 16 км ясно -2.1 -3.5 90 -6 -6 1026.5 988.4 -2.4 +5.3 81
09 17.10 З 1 16 км 3/3 1000 м
[]
-6.7 -7.0 98 -9 -9 1028.0 989.7
12 17.10 Ю 2 16 км ясно -8.4 -9.0 95 -12 -12 1028.7 990.2 -8.4 +5.3
15 17.10 ЮВ 3 16 км 10/10 1500 м
[]
-3.0 -4.0 93 -8 -8 1028.2 989.9
18 17.10 ЮВ 3 16 км ясно +5.2 -1.8 61 +3 +7 1025.8 987.8 -8.4 +5.2
21 17.10 ЮЗ 6 16 км ясно +11.8 +2.0 51 +9 +11 1021.9 984.1
00 18.10 ЮЗ 4 16 км ясно +11.0 +3.1 58 +9 +9 1018.0 980.2 -8.4 +12.4
03 18.10 ЮЗ 9 16 км ясно +12.3 +3.3 54 +9 +9 1014.6 977.2
06 18.10 ЮЗ 6 16 км ясно +11.2 +1.2 50 +9 +9 1013.5 976.4 -8.4 +13.0 21
09 18.10 З 4 16 км ясно +8.5 0.0 55 +6 +6 1013.1 976.2
12 18.10 ЮЗ 6 16 км ясно +8.9 -0.2 53 +6 +6 1012.3 975.4 +3.4 +13.0
15 18.10 ЮЗ 5 16 км ясно +12.9 +0.7 43 +11 +11 1010.7 974.0

 

Местоположение метеостанции Dauphin Airport (Канада): широта 51.10 долгота -100.05 высота над уровнем моря 305 м.

В архиве по умолчанию представлена погода в Dauphin Airport за последнюю неделю. Архивные данные за месяц целиком и за предыдущие месяцы, начиная с января 2011 года, Вы можете получить, выбрав интересующий диапазон дат из раскрывающегося списка и нажав кнопку "Ввод!".


*Определитесь, кто Вы:
робот инопланетянин человек

Внимание! Время в таблицах - всемирное. Для получения местного времени необходимо прибавить поправку, которая в Dauphin Airport равна -8 ч.

Смотрите также архив погоды в соседних городах и на ближайших метеорологических станциях:

Погода в Dauphin Cs (Канада) (3 км)
Погода в Wasagaming (Канада) (51 км)
Погода в Wilson Creek Weir Cs (Канада) (56 км)
Погода в Shoal Lake Cs (Канада) (82 км)
Погода в Roblin (Канада) (88 км)
Погода в Gypsumville (Канада) (110 км)
Погода в Brandon (Канада) (131 км)
Погода в Vanscoy Upper-Air (Канада) (134 км)
Погода в Swan River (Канада) (138 км)
Погода в Carberry Cs (Канада) (142 км)

Пояснения к столбцам:

Ветер - указаны скорость ветра в м/с - средняя за 10 мин, порывы в срок и между сроками (в фигурных скобках) и направление, откуда дует ветер: С - северный, СВ - северо-восточный, В - восточный, ЮВ - юго-восточный, Ю - южный, ЮЗ - юго-западный, З - западный, СЗ - северо-западный.
Видимость - горизонтальная дальность видимости в метрах или километрах. При видимости от 1 до 10 км при отсутствии осадков обычно наблюдается дымка, при ухудшении видимости до 1 км и менее - туман. В сухую погоду видимость может ухудшаться дымом, пылью или мглою.
Явления - указаны атмосферные явления, наблюдавшиеся в срок или в последний час перед сроком; фигурными скобками обозначены явления, наблюдавшиеся между сроками (за 1-3 часа до срока); квадратными скобками обозначены град или гололедные отложения с указанием их диаметра в мм.
Облачность - указаны через наклонную черту общая и нижняя облачность в баллах и высота нижней границы облаков в метрах; квадратными скобками обозначены формы облаков: Ci - перистые, Cs - перисто-слоистые, Cc - перисто-кучевые, Ac - высококучевые, As - высокослоистые, Sc - слоисто-кучевые, Ns - слоисто-дождевые, Cu - кучевые, Cb - кучево-дождевые. Подробнее классификацию облаков см. в Атласе облаков (PDF).
T - Температура воздуха - температура, измеренная на высоте 2 м над землей.
Td - Температура точки росы - температура, при понижении до которой содержащийся в воздухе водяной пар достигнет насыщения.
f - Относительная влажность воздуха - влажноcть воздуха, измеренная на высоте 2 м над землей.
Te - Эффективная температура - температура, которую ощущает одетый по сезону человек в тени. Характеристика душности погоды. При расчете учитывается влияние влажности воздуха и скорости ветра на теплоощущения человека.
Tes - Эффективная температура на солнце - температура, которую ощущает человек, с поправкой на солнечный нагрев. Характеристика знойности погоды. Зависит от высоты солнца над горизонтом, облачности и скорости ветра. Ночью, в пасмурную погоду, а также при ветре 12 м/с и более поправка равна нулю.
P - Атмосферное давление - приведенное к уровню моря атмосферное давление.
Po - Атмосферное давление - измеренное на уровне метеостанции атмосферное давление.
Tmin - Минимальная температура - минимум температуры воздуха на высоте 2 м над землей.
Tmax - Максимальная температура - максимум температуры воздуха на высоте 2 м над землей.
R - Количество осадков - Количество выпавших осадков за период времени, мм. При наведении курсора мыши на число - период времени, за который выпало указанное количество осадков.
R24 - Количество осадков - Количество выпавших осадков за 24 часа, мм.
S - Снежный покров - Высота снежного покрова, см. При наведении курсора мыши на число - состояние снежного покрова и степень покрытия местности в баллах.